Vorticity
21 24 26 24 11 6 9 19 25 29 31 29 29 30 30 28 26 24 21 17 14 10 6 1 -1 -0 3 8 4 5 9 14 16 17 18 19 18 18 18 18 17 15 13 11 10 9 8 7 6 5 4 4 5 5 5 4 4 5 5 6 5 6 8 11 5 1 0 4 6
16 16 16 17 16 16 19 25 30 33 35 35 33 29 26 25 27 27 27 25 23 20 17 11 6 3 4 10 7 4 2 4 7 10 13 16 16 17 18 19 20 19 18 15 14 12 11 10 8 8 7 6 6 6 5 4 4 4 5 5 5 6 8 10 8 5 4 4 2
12 11 10 11 12 12 12 13 18 22 24 25 22 21 21 23 25 26 26 26 24 24 22 19 15 12 9 7 6 3 -0 -1 1 4 8 11 13 15 16 18 19 20 20 18 17 16 14 13 9 8 9 8 7 7 6 5 4 4 4 5 5 5 6 7 9 8 7 5 5
7 6 6 6 6 4 1 -5 -3 -1 0 -2 -1 3 9 14 17 18 19 20 20 19 17 15 13 11 10 10 10 8 5 3 2 3 5 7 10 12 14 15 17 19 20 20 19 18 17 15 11 12 12 9 8 8 7 6 5 4 4 6 6 5 5 6 6 6 6 6 7
6 6 5 3 -3 -6 -10 -16 -22 -21 -17 -13 -9 -4 2 6 7 9 10 12 12 12 12 12 11 11 11 12 13 12 11 8 6 6 5 6 8 10 11 12 13 15 17 18 18 18 17 16 14 13 13 10 9 8 7 7 6 6 5 5 4 4 4 4 4 4 4 5 7
15 15 15 12 6 1 -2 -5 -9 -9 -6 -2 2 6 8 10 10 10 11 13 14 14 14 15 14 14 14 14 14 14 13 12 10 8 8 8 8 9 9 9 9 10 11 13 14 14 14 14 13 12 10 9 9 8 8 6 6 5 5 4 3 3 3 4 4 4 5 6 7
30 32 34 35 34 32 30 28 25 24 22 21 20 19 18 15 13 14 15 14 13 14 15 16 16 15 14 12 13 14 14 13 11 10 9 8 8 8 8 8 7 7 8 8 9 10 11 12 12 11 10 9 8 7 7 6 5 5 5 5 5 5 6 6 7 7 7 7 8
15 17 20 24 28 31 33 34 34 34 33 32 30 28 25 23 23 22 20 19 19 18 17 18 18 16 15 15 14 13 13 12 11 10 9 8 8 8 8 8 7 7 6 6 6 6 6 7 7 7 7 7 6 5 5 4 5 5 6 7 8 8 8 8 7 7 7 7 7
-16 -12 -7 -0 4 8 12 15 18 20 23 25 27 28 28 27 26 23 21 20 19 18 18 17 15 13 11 10 10 10 10 9 9 9 9 9 9 9 8 8 8 8 8 7 7 6 4 4 4 4 4 4 4 4 3 4 5 6 7 7 8 8 8 8 7 7 7 6 7
-15 -12 -9 -6 -3 0 3 4 5 6 7 9 13 16 17 17 16 16 16 15 13 12 10 7 6 5 4 3 2 2 2 4 5 7 8 10 10 10 10 9 9 9 9 9 9 8 8 7 6 5 4 4 4 4 4 4 5 6 6 6 7 8 8 8 8 9 9 8 8
5 5 3 1 2 4 6 6 5 3 1 -1 0 2 3 4 6 8 10 13 13 10 5 -2 -3 -1 2 4 3 1 0 0 2 5 7 9 11 11 11 10 10 9 9 9 10 10 9 9 8 7 6 5 5 6 6 6 6 7 8 8 8 8 8 8 9 10 9 8 7
13 11 9 7 7 8 10 10 10 8 5 1 -2 -3 -4 -3 -0 3 7 12 13 10 4 -6 -9 -4 6 17 20 18 12 8 6 6 7 9 11 12 13 12 10 10 9 10 10 10 10 10 9 8 8 8 8 9 10 11 12 13 13 12 11 9 8 8 8 7 5 4 3
7 6 5 6 8 10 12 13 13 12 11 8 6 3 1 0 1 3 6 10 12 10 4 -6 -13 -11 -1 17 29 31 27 19 13 10 9 10 13 15 16 15 13 12 11 11 12 12 12 12 11 11 11 11 13 15 16 17 17 17 16 15 13 10 8 6 3 1 -1 -2 -1
-0 -0 1 4 7 9 11 11 12 12 12 12 11 10 8 7 6 6 7 9 10 9 6 -2 -10 -12 -8 3 19 27 28 22 17 14 13 14 16 18 18 18 16 15 14 13 13 13 13 12 12 12 13 15 17 19 20 20 19 18 17 15 13 9 6 2 -1 -3 -4 -2 -0
-2 0 2 5 7 8 8 8 8 9 9 10 11 11 11 11 10 10 9 10 10 10 7 3 -3 -8 -9 -6 5 14 20 19 17 16 16 17 18 19 19 18 17 16 16 15 15 14 13 12 12 13 14 16 18 19 20 20 19 18 16 14 11 8 5 2 -0 -0 1 2 5
1 3 5 7 7 6 6 5 5 6 7 8 9 10 11 12 12 12 12 12 12 12 10 7 2 -2 -4 -5 -0 6 13 16 16 17 18 18 18 18 17 17 16 16 17 17 16 16 14 13 13 13 13 14 15 16 17 17 16 15 14 12 10 8 7 6 6 8 10 12 15
7 8 9 9 8 6 5 4 4 5 6 8 9 10 10 11 12 13 13 14 14 14 13 11 8 5 3 2 4 8 12 15 15 16 16 17 17 16 16 16 16 17 18 19 18 17 16 15 14 13 13 11 10 10 10 10 11 10 10 9 9 9 10 12 14 16 19 21 23
15 14 13 12 11 9 8 7 7 7 8 9 10 10 11 11 11 11 11 11 13 16 17 18 16 15 13 13 13 14 15 15 13 12 11 12 12 13 13 13 14 15 16 18 18 18 17 17 16 16 15 13 11 10 10 10 10 11 11 12 13 14 15 17 20 22 24 26 27
18 18 17 16 15 14 13 13 12 12 11 11 11 12 12 11 10 7 6 6 11 16 19 21 21 21 20 20 19 18 17 14 11 7 5 4 5 6 7 8 9 10 11 13 14 16 16 17 17 18 18 18 18 18 18 18 19 19 20 20 21 22 22 23 24 25 26 27 28
14 15 16 16 16 16 16 16 15 15 14 14 13 13 13 12 9 6 2 2 6 11 15 17 18 19 20 20 21 20 19 16 11 6 2 -0 0 2 3 5 5 6 6 7 9 11 13 15 15 15 16 16 17 18 19 20 20 21 21 22 22 23 23 24 23 23 23 23 23
5 7 9 10 11 11 12 13 13 14 14 14 14 14 13 13 10 6 2 0 2 6 9 11 12 13 14 15 16 17 18 17 14 11 7 3 2 2 4 6 7 7 7 6 7 8 9 11 11 11 10 8 8 7 7 7 8 8 9 9 10 10 10 11 11 10 10 10 12
3 4 4 5 5 5 5 6 7 9 10 11 12 13 13 12 11 8 5 3 4 5 6 7 6 6 6 6 7 9 12 14 15 14 13 10 7 6 7 8 9 10 9 9 9 9 9 9 8 7 6 4 1 -1 -2 -3 -2 -2 -1 -1 -1 -1 -2 -2 -4 -5 -5 -6 -4
4 5 5 4 3 3 2 3 4 4 5 6 7 8 9 9 9 8 7 6 7 8 8 8 4 2 -1 -2 -2 -1 0 2 5 7 9 9 8 6 5 5 6 6 6 6 7 7 8 8 7 6 5 3 0 -1 -3 -3 -3 -2 -2 -2 -2 -2 -2 -3 -4 -6 -8 -10 -12
4 4 4 4 3 3 2 2 2 2 3 3 4 4 5 5 6 6 6 6 6 8 8 8 5 0 -4 -7 -9 -10 -10 -9 -8 -6 -4 -2 -1 0 0 0 0 -0 -1 -1 -1 -0 0 1 2 3 2 1 0 -1 -2 -2 -1 -1 -0 0 1 1 2 2 2 0 -1 -3 -5
6 5 5 4 4 3 3 2 2 2 2 2 2 2 2 3 4 4 5 5 5 5 6 6 4 1 -3 -7 -10 -13 -14 -15 -14 -13 -11 -9 -7 -5 -4 -2 -2 -3 -3 -4 -4 -4 -4 -4 -3 -2 -2 -2 -1 -1 -0 -0 -0 -0 -0 0 1 2 3 4 4 4 4 4 3
8 8 7 7 6 6 5 4 4 3 3 3 3 3 3 3 4 4 4 5 5 5 4 4 4 2 0 -2 -5 -7 -10 -11 -10 -9 -8 -6 -4 -4 -3 -2 -2 -2 -2 -1 -1 -1 -1 -1 -1 -1 -1 -1 0 2 3 4 4 3 2 2 2 2 3 4 5 5 6 5 5
10 10 9 9 9 8 8 7 6 6 6 6 5 5 5 5 5 5 6 6 6 6 6 6 6 6 5 3 2 2 1 1 1 1 2 2 3 3 3 2 2 2 2 1 2 2 2 3 3 3 2 1 2 4 5 7 8 7 6 6 6 6 6 6 7 7 7 7 6
10 9 9 9 10 9 9 9 9 9 9 9 8 7 6 6 6 7 7 7 7 8 9 10 10 9 8 8 8 8 7 7 7 7 8 9 9 9 9 8 8 7 6 5 5 5 5 5 5 5 5 4 4 5 6 7 8 9 9 9 9 10 10 10 10 10 10 10 9
6 7 7 8 8 8 8 9 9 9 9 9 8 8 8 7 8 8 7 7 8 9 10 11 12 12 11 11 11 11 10 10 8 7 8 9 10 11 12 11 11 11 11 10 9 8 8 7 7 8 8 8 7 7 7 7 8 9 9 10 10 10 10 10 10 10 10 10 10
4 4 5 6 6 6 7 7 7 7 7 7 7 7 7 6 7 7 7 8 8 8 9 10 10 11 11 11 10 10 10 10 9 8 7 6 7 8 9 10 10 11 11 11 11 10 10 10 9 9 9 9 9 8 8 8 8 8 8 8 9 9 10 10 10 10 10 9 9
3 4 4 4 5 5 6 6 6 6 6 6 6 6 6 6 6 6 6 6 6 6 6 7 7 8 8 8 8 8 8 8 8 8 7 6 6 5 6 7 8 8 9 10 10 10 10 10 10 9 9 9 9 9 8 8 8 8 8 8 9 10 11 12 12 12 11 9 8
3 3 4 4 4 4 4 4 4 4 5 5 5 5 5 6 5 5 5 5 5 5 5 6 6 6 6 7 7 7 7 7 8 8 7 7 6 6 6 6 7 7 8 9 9 9 10 10 10 9 9 9 9 8 8 8 8 9 9 9 10 11 12 13 14 13 12 10 8
7 7 6 6 5 5 4 4 4 3 3 3 3 3 3 3 4 4 4 4 5 5 5 5 5 6 6 6 6 6 7 7 7 7 8 8 8 8 8 8 8 8 8 8 8 9 9 10 10 10 9 9 9 8 8 9 9 9 9 10 11 11 12 13 13 14 13 12 10
21 20 20 19 18 17 16 15 14 13 12 11 10 9 8 7 7 6 6 6 6 6 6 6 6 6 6 6 6 6 6 7 7 8 8 9 9 9 10 10 10 10 9 9 9 10 10 10 10 10 10 10 9 9 9 10 10 10 10 10 11 11 12 12 13 13 13 12 11
30 30 29 29 29 29 29 29 28 28 27 26 25 24 23 22 21 20 19 18 18 17 16 15 15 14 13 13 12 11 10 9 9 8 8 8 9 9 10 10 10 10 10 10 11 11 11 11 11 11 11 11 11 11 11 11 11 11 11 11 11 11 12 12 12 12 12 12 11
23 24 24 25 25 26 27 27 28 28 29 29 29 29 29 30 30 30 29 29 29 28 26 25 25 24 24 23 22 21 19 17 15 14 12 12 11 10 10 9 8 9 9 9 10 10 11 11 11 11 11 12 12 12 12 12 12 12 12 12 11 12 12 12 12 12 12 12 11
12 13 13 14 14 14 15 16 17 18 18 19 20 20 21 21 22 23 23 24 24 24 24 24 24 24 24 24 25 25 25 25 23 22 20 19 18 16 14 12 11 9 8 8 7 8 8 8 9 10 11 12 12 12 12 12 13 13 13 13 13 13 13 12 12 12 12 12 11
6 6 6 6 6 6 7 7 7 8 8 8 9 9 10 10 10 10 11 11 12 13 14 14 15 15 16 17 18 19 20 21 22 23 23 23 23 22 21 19 17 15 13 11 9 7 6 6 6 7 8 10 11 11 12 12 12 13 13 13 13 13 13 13 13 13 12 12 12
2 2 2 2 2 2 2 2 2 3 3 3 3 3 3 3 3 4 4 4 4 5 5 6 6 6 7 8 8 10 11 12 13 15 16 18 19 20 21 22 22 21 20 19 16 14 11 9 7 6 6 6 8 9 10 11 12 12 13 13 13 13 13 13 13 13 13 12 12
-0 -1 -1 -1 -0 0 -0 -0 -0 0 0 0 0 0 -0 0 0 1 1 0 0 0 1 1 1 1 2 2 2 3 3 4 5 6 7 9 10 12 14 16 18 20 21 21 21 20 18 16 13 10 8 6 6 7 7 9 10 11 12 13 13 13 13 13 13 13 13 12 12
-1 -1 -1 -1 -1 -1 -1 -1 -0 -0 -1 -1 -1 -1 -0 -0 0 -0 -1 -1 -2 -2 -1 -1 -1 -1 -1 -1 -1 -1 -1 -1 0 1 2 2 4 5 6 8 10 13 15 17 18 20 20 20 19 17 14 11 9 7 6 7 8 9 10 12 12 13 13 12 12 13 13 12 12
Height
5703 5704 5706 5707 5707 5707 5707 5706 5704 5702 5702 5703 5704 5704 5705 5707 5709 5711 5714 5716 5718 5720 5722 5723 5724 5724 5725 5727 5728 5728 5728 5728 5729 5730 5731 5731 5731 5732 5732 5734 5734 5734 5735 5736 5736 5737 5738 5739 5740 5741 5741 5743 5744 5745 5746 5746 5747 5748 5749 5750 5750 5751 5751 5753 5754 5754 5755 5757 5759
5702 5703 5704 5706 5706 5706 5707 5706 5704 5703 5703 5702 5702 5702 5702 5704 5706 5707 5709 5711 5713 5715 5717 5720 5721 5722 5722 5723 5725 5725 5725 5725 5726 5727 5727 5727 5728 5728 5729 5731 5731 5731 5731 5731 5732 5733 5734 5735 5735 5736 5737 5739 5740 5741 5741 5742 5744 5744 5745 5746 5746 5747 5747 5748 5749 5750 5751 5752 5754
5700 5701 5702 5703 5703 5704 5705 5705 5705 5705 5705 5705 5704 5702 5701 5703 5704 5704 5706 5707 5709 5710 5712 5714 5716 5717 5718 5719 5721 5722 5722 5722 5723 5724 5724 5725 5725 5726 5726 5727 5728 5728 5728 5728 5728 5729 5730 5731 5732 5733 5734 5735 5736 5737 5738 5739 5740 5740 5741 5741 5742 5743 5743 5744 5745 5746 5746 5747 5748
5697 5698 5699 5700 5700 5700 5701 5701 5701 5702 5703 5703 5702 5701 5701 5701 5702 5703 5704 5705 5706 5707 5708 5709 5711 5713 5714 5716 5718 5718 5719 5719 5720 5721 5721 5721 5722 5723 5724 5726 5726 5726 5726 5726 5725 5726 5726 5727 5729 5730 5731 5731 5732 5733 5734 5735 5736 5736 5737 5737 5738 5739 5740 5740 5741 5742 5742 5743 5744
5693 5693 5693 5693 5695 5696 5696 5696 5696 5697 5698 5698 5698 5698 5698 5698 5699 5700 5701 5702 5703 5704 5705 5706 5708 5710 5711 5712 5713 5714 5715 5716 5716 5717 5717 5718 5719 5719 5720 5721 5721 5722 5722 5722 5722 5722 5723 5724 5725 5726 5727 5728 5729 5730 5731 5732 5732 5733 5733 5734 5735 5735 5736 5736 5737 5738 5738 5739 5740
5688 5688 5688 5688 5689 5691 5691 5693 5692 5692 5692 5694 5695 5695 5695 5696 5696 5698 5699 5700 5701 5701 5703 5704 5705 5706 5708 5709 5710 5711 5711 5712 5713 5714 5714 5714 5715 5715 5716 5716 5716 5717 5718 5718 5718 5719 5720 5721 5721 5722 5723 5725 5725 5726 5727 5728 5729 5729 5730 5731 5731 5731 5732 5732 5733 5734 5734 5735 5736
5685 5685 5686 5686 5687 5688 5688 5689 5689 5690 5691 5691 5692 5692 5693 5694 5695 5696 5697 5698 5699 5700 5701 5703 5703 5705 5706 5707 5707 5707 5708 5709 5709 5710 5710 5711 5711 5711 5712 5712 5713 5714 5714 5715 5716 5716 5716 5718 5719 5719 5720 5721 5722 5723 5724 5725 5725 5726 5726 5726 5727 5728 5728 5728 5729 5730 5730 5730 5731
5682 5683 5684 5685 5686 5686 5687 5687 5688 5689 5689 5690 5690 5691 5691 5692 5694 5695 5695 5696 5698 5699 5700 5701 5701 5702 5703 5704 5705 5705 5705 5705 5706 5706 5706 5707 5707 5708 5708 5709 5709 5710 5711 5711 5712 5713 5714 5714 5715 5716 5716 5718 5719 5719 5721 5721 5722 5722 5722 5722 5723 5724 5724 5724 5724 5725 5726 5726 5726
5680 5681 5682 5683 5684 5685 5686 5686 5687 5688 5688 5688 5689 5689 5690 5690 5691 5692 5692 5693 5694 5695 5696 5697 5698 5699 5701 5701 5701 5701 5701 5702 5702 5702 5703 5703 5704 5704 5705 5706 5706 5707 5707 5708 5709 5709 5710 5710 5711 5712 5713 5714 5715 5716 5716 5717 5717 5718 5718 5719 5719 5719 5719 5720 5720 5721 5721 5721 5722
5678 5679 5680 5681 5682 5683 5684 5685 5686 5686 5687 5687 5687 5688 5688 5689 5689 5690 5690 5691 5691 5692 5693 5694 5696 5697 5698 5699 5699 5698 5698 5698 5698 5698 5699 5699 5700 5701 5701 5702 5703 5704 5704 5705 5705 5706 5706 5707 5708 5708 5709 5710 5711 5711 5712 5712 5712 5713 5714 5715 5715 5716 5716 5716 5716 5716 5716 5717 5718
5676 5677 5678 5679 5680 5681 5682 5682 5683 5684 5684 5685 5685 5686 5686 5686 5687 5688 5688 5689 5689 5690 5690 5691 5692 5694 5695 5696 5696 5696 5696 5695 5695 5695 5695 5696 5696 5696 5697 5698 5699 5700 5700 5701 5701 5702 5703 5704 5704 5705 5705 5706 5706 5706 5707 5708 5709 5710 5712 5713 5714 5714 5714 5714 5715 5715 5715 5715 5715
5674 5675 5676 5677 5678 5679 5680 5680 5681 5681 5682 5683 5683 5683 5684 5684 5685 5685 5686 5686 5687 5687 5687 5687 5688 5689 5690 5691 5692 5693 5693 5692 5691 5691 5692 5692 5692 5692 5693 5694 5694 5695 5696 5696 5697 5698 5699 5700 5700 5701 5701 5701 5702 5703 5704 5704 5705 5706 5707 5707 5709 5710 5711 5711 5711 5712 5712 5711 5711
5672 5673 5674 5675 5676 5676 5677 5678 5678 5679 5680 5680 5681 5681 5681 5682 5682 5683 5683 5684 5684 5685 5685 5685 5686 5685 5686 5687 5688 5688 5688 5688 5687 5687 5688 5688 5688 5689 5689 5690 5691 5691 5692 5693 5693 5694 5695 5696 5696 5697 5698 5698 5699 5699 5700 5700 5700 5701 5701 5701 5702 5703 5704 5705 5705 5705 5706 5705 5705
5670 5671 5672 5673 5673 5674 5675 5675 5676 5677 5677 5678 5678 5679 5679 5679 5680 5680 5680 5681 5681 5681 5682 5683 5683 5682 5682 5684 5686 5686 5686 5686 5685 5684 5684 5684 5685 5685 5686 5686 5687 5688 5688 5689 5690 5691 5691 5692 5693 5694 5695 5695 5695 5695 5695 5695 5695 5696 5696 5697 5698 5698 5699 5699 5699 5699 5699 5699 5699
5668 5669 5670 5671 5671 5672 5672 5673 5674 5674 5675 5676 5676 5676 5676 5676 5677 5677 5678 5678 5678 5678 5679 5679 5679 5679 5679 5680 5681 5682 5682 5683 5682 5681 5681 5681 5681 5682 5683 5683 5684 5684 5685 5686 5686 5687 5688 5689 5689 5690 5691 5691 5691 5691 5691 5691 5691 5692 5693 5693 5694 5694 5694 5695 5695 5695 5695 5695 5695
5666 5666 5667 5668 5669 5669 5670 5671 5671 5672 5672 5673 5673 5673 5674 5674 5674 5675 5675 5675 5676 5676 5676 5676 5676 5676 5676 5677 5677 5678 5678 5679 5678 5678 5678 5678 5678 5679 5680 5680 5681 5681 5682 5682 5683 5684 5684 5685 5686 5686 5687 5687 5687 5687 5687 5687 5688 5688 5689 5689 5690 5690 5691 5691 5691 5691 5691 5691 5691
5663 5664 5665 5666 5666 5667 5668 5668 5669 5669 5670 5670 5671 5671 5671 5671 5672 5672 5672 5672 5673 5673 5674 5674 5674 5674 5674 5674 5674 5675 5675 5675 5675 5675 5675 5676 5676 5676 5677 5677 5678 5678 5679 5679 5680 5681 5681 5681 5682 5682 5683 5683 5683 5684 5684 5684 5684 5685 5685 5685 5686 5686 5687 5687 5687 5687 5687 5687 5688
5661 5661 5662 5663 5664 5664 5665 5666 5666 5667 5667 5667 5668 5668 5668 5669 5670 5670 5670 5671 5671 5671 5671 5671 5671 5671 5671 5671 5671 5671 5672 5672 5672 5672 5672 5673 5673 5673 5674 5674 5675 5675 5676 5676 5677 5677 5678 5678 5678 5679 5679 5680 5680 5680 5680 5681 5681 5681 5681 5682 5682 5682 5683 5683 5683 5684 5684 5684 5684
5659 5659 5660 5660 5661 5661 5662 5663 5663 5664 5664 5665 5665 5665 5666 5666 5667 5667 5668 5668 5669 5669 5669 5668 5668 5668 5668 5668 5668 5669 5669 5669 5669 5669 5669 5670 5670 5670 5671 5671 5671 5672 5672 5673 5673 5674 5674 5675 5675 5676 5676 5676 5676 5676 5676 5677 5677 5677 5678 5678 5678 5679 5679 5680 5680 5680 5680 5681 5680
5656 5657 5657 5657 5658 5658 5659 5660 5660 5661 5661 5662 5662 5663 5663 5664 5664 5664 5665 5665 5665 5665 5665 5664 5664 5665 5665 5665 5665 5665 5665 5666 5666 5666 5666 5666 5666 5667 5667 5668 5668 5668 5669 5669 5669 5670 5670 5671 5671 5672 5672 5672 5673 5673 5673 5673 5674 5674 5675 5675 5675 5676 5676 5676 5676 5677 5677 5677 5677
5653 5654 5654 5654 5655 5655 5656 5656 5657 5658 5658 5659 5659 5660 5660 5661 5661 5661 5661 5661 5662 5662 5662 5661 5661 5661 5661 5661 5661 5661 5661 5662 5662 5662 5662 5663 5663 5663 5664 5664 5665 5665 5665 5665 5666 5666 5666 5666 5667 5667 5668 5668 5668 5669 5669 5670 5670 5670 5671 5671 5672 5672 5672 5673 5673 5674 5674 5674 5674
5650 5650 5650 5651 5651 5652 5652 5653 5654 5654 5655 5655 5656 5656 5657 5657 5658 5658 5658 5658 5659 5659 5659 5658 5658 5658 5658 5658 5658 5658 5658 5658 5659 5659 5659 5660 5660 5661 5661 5661 5661 5661 5661 5661 5661 5662 5662 5662 5663 5663 5663 5663 5664 5664 5664 5665 5665 5666 5666 5667 5668 5668 5669 5669 5670 5670 5671 5671 5671
5646 5647 5647 5648 5648 5649 5650 5650 5651 5651 5652 5652 5653 5653 5654 5654 5654 5654 5655 5655 5655 5655 5655 5655 5655 5655 5655 5655 5655 5655 5655 5655 5655 5656 5656 5656 5656 5657 5657 5657 5657 5657 5657 5657 5657 5658 5658 5658 5659 5659 5659 5659 5659 5659 5660 5660 5661 5661 5662 5662 5663 5664 5664 5665 5666 5666 5666 5667 5667
5644 5644 5645 5645 5646 5646 5647 5647 5648 5648 5649 5649 5650 5650 5650 5650 5651 5651 5651 5651 5651 5652 5652 5652 5652 5652 5651 5651 5651 5651 5651 5651 5652 5652 5652 5653 5653 5653 5653 5653 5653 5653 5653 5653 5653 5654 5654 5654 5654 5655 5655 5655 5655 5655 5656 5656 5656 5657 5658 5658 5659 5660 5660 5661 5661 5661 5662 5663 5663
5641 5641 5641 5642 5642 5643 5644 5644 5645 5645 5646 5646 5646 5646 5646 5647 5647 5647 5647 5647 5647 5648 5648 5648 5648 5648 5648 5648 5648 5647 5647 5648 5648 5648 5649 5649 5649 5649 5649 5650 5650 5650 5650 5649 5649 5650 5650 5650 5650 5650 5650 5651 5651 5651 5651 5652 5652 5653 5653 5654 5655 5656 5656 5656 5657 5657 5658 5658 5659
5637 5638 5638 5638 5639 5639 5640 5640 5641 5641 5642 5642 5642 5643 5643 5643 5643 5643 5644 5644 5644 5644 5644 5644 5644 5644 5644 5644 5644 5644 5644 5644 5644 5644 5644 5644 5645 5645 5645 5646 5646 5646 5646 5645 5645 5645 5645 5645 5645 5646 5646 5646 5646 5647 5647 5647 5648 5648 5649 5650 5650 5651 5652 5652 5653 5653 5653 5654 5654
5636 5636 5636 5635 5636 5636 5636 5636 5637 5637 5638 5638 5638 5639 5639 5639 5639 5639 5640 5640 5639 5640 5640 5640 5640 5640 5640 5640 5640 5640 5639 5639 5639 5640 5640 5640 5640 5640 5640 5641 5641 5641 5641 5641 5641 5641 5641 5641 5641 5641 5641 5641 5641 5642 5642 5643 5644 5645 5645 5646 5646 5646 5647 5648 5649 5649 5649 5650 5650
5634 5634 5634 5633 5633 5633 5633 5633 5633 5633 5633 5634 5634 5634 5634 5635 5635 5635 5635 5635 5635 5635 5635 5635 5635 5635 5635 5635 5635 5635 5635 5635 5635 5635 5635 5635 5635 5635 5635 5636 5636 5636 5636 5636 5636 5636 5636 5636 5636 5636 5636 5636 5636 5637 5637 5638 5639 5640 5641 5641 5641 5642 5643 5644 5644 5645 5645 5645 5646
5632 5632 5631 5631 5631 5631 5631 5630 5630 5630 5630 5630 5630 5630 5630 5630 5630 5631 5631 5631 5631 5631 5631 5631 5630 5630 5630 5630 5630 5630 5630 5630 5630 5630 5630 5630 5630 5630 5630 5631 5631 5630 5630 5630 5630 5630 5630 5631 5631 5631 5631 5631 5631 5632 5632 5633 5634 5635 5636 5636 5637 5637 5638 5639 5640 5641 5641 5641 5641
5629 5629 5629 5628 5628 5628 5628 5627 5627 5626 5626 5626 5626 5626 5626 5626 5626 5626 5626 5626 5626 5626 5626 5626 5626 5625 5625 5624 5624 5624 5625 5625 5625 5625 5625 5625 5625 5625 5625 5625 5625 5625 5625 5625 5625 5625 5625 5625 5625 5625 5626 5626 5626 5626 5627 5628 5629 5630 5630 5631 5632 5632 5633 5634 5635 5636 5637 5637 5636
5626 5626 5626 5625 5625 5625 5624 5624 5623 5623 5622 5622 5621 5621 5621 5621 5621 5621 5621 5621 5621 5621 5621 5621 5621 5620 5620 5619 5619 5619 5619 5619 5620 5620 5620 5620 5620 5620 5620 5620 5620 5620 5620 5619 5619 5619 5619 5619 5620 5620 5620 5621 5621 5621 5622 5622 5623 5624 5625 5626 5626 5627 5628 5629 5630 5631 5632 5632 5632
5623 5622 5622 5622 5621 5621 5621 5620 5620 5619 5619 5618 5618 5617 5617 5617 5616 5616 5616 5616 5616 5615 5615 5615 5615 5615 5615 5614 5614 5614 5614 5614 5614 5614 5614 5615 5615 5615 5615 5615 5615 5614 5614 5614 5614 5614 5614 5614 5614 5614 5614 5615 5615 5616 5616 5617 5618 5619 5620 5621 5621 5622 5623 5624 5625 5626 5626 5627 5628
5620 5620 5619 5619 5618 5618 5617 5617 5616 5616 5615 5615 5614 5614 5613 5613 5612 5612 5611 5611 5611 5611 5610 5610 5610 5610 5609 5609 5609 5609 5608 5608 5608 5608 5608 5609 5609 5609 5609 5609 5609 5608 5608 5608 5608 5608 5608 5608 5608 5608 5609 5609 5610 5610 5611 5612 5613 5613 5614 5615 5616 5617 5617 5618 5619 5620 5621 5622 5622
5617 5616 5616 5615 5615 5614 5614 5613 5613 5612 5612 5611 5611 5610 5610 5609 5609 5608 5608 5607 5607 5606 5606 5605 5605 5605 5604 5604 5604 5603 5603 5602 5602 5602 5602 5602 5603 5603 5603 5603 5603 5603 5603 5603 5602 5602 5602 5602 5602 5602 5603 5603 5604 5605 5606 5606 5607 5608 5609 5610 5611 5611 5612 5613 5614 5615 5616 5616 5617
5613 5613 5612 5612 5611 5611 5610 5610 5609 5608 5608 5607 5607 5606 5606 5605 5605 5604 5604 5603 5602 5602 5601 5601 5600 5600 5599 5599 5599 5598 5598 5597 5597 5597 5596 5596 5596 5597 5597 5597 5597 5597 5597 5597 5597 5597 5597 5597 5597 5597 5597 5597 5598 5599 5600 5601 5601 5602 5603 5604 5605 5606 5607 5607 5608 5609 5610 5611 5612
5610 5610 5609 5608 5608 5607 5606 5606 5605 5605 5604 5603 5603 5602 5601 5601 5600 5600 5599 5599 5598 5597 5597 5596 5596 5595 5595 5594 5594 5593 5593 5593 5592 5592 5591 5591 5591 5591 5591 5591 5591 5591 5591 5591 5591 5591 5591 5591 5591 5591 5592 5592 5593 5593 5594 5595 5596 5596 5597 5599 5600 5601 5601 5602 5603 5604 5605 5606 5607
5607 5606 5606 5605 5605 5604 5603 5602 5602 5601 5600 5600 5599 5598 5598 5597 5596 5596 5595 5594 5594 5593 5593 5592 5591 5591 5590 5590 5589 5589 5588 5588 5587 5587 5587 5586 5586 5586 5586 5586 5586 5586 5586 5586 5586 5586 5586 5586 5586 5586 5586 5587 5587 5588 5589 5589 5590 5591 5592 5593 5594 5595 5596 5597 5598 5599 5600 5601 5602
5604 5603 5602 5602 5601 5601 5600 5599 5598 5597 5597 5596 5595 5595 5594 5593 5592 5591 5591 5590 5589 5589 5588 5588 5587 5586 5586 5585 5584 5584 5583 5583 5582 5582 5582 5581 5581 5581 5581 5581 5581 5581 5581 5580 5580 5580 5580 5581 5581 5581 5581 5582 5582 5583 5583 5584 5585 5586 5586 5587 5588 5589 5590 5591 5592 5593 5594 5595 5596
5600 5599 5599 5598 5597 5596 5596 5595 5594 5593 5593 5592 5591 5590 5590 5589 5588 5587 5586 5586 5585 5584 5584 5583 5582 5582 5581 5580 5580 5579 5579 5578 5577 5577 5576 5576 5576 5576 5576 5576 5576 5575 5575 5575 5574 5574 5574 5575 5575 5576 5576 5576 5577 5577 5578 5579 5580 5581 5581 5582 5583 5584 5585 5586 5587 5587 5588 5589 5591
5596 5596 5595 5594 5593 5593 5592 5591 5590 5589 5588 5587 5586 5586 5585 5584 5583 5582 5581 5580 5579 5579 5578 5578 5577 5576 5576 5575 5575 5574 5574 5573 5572 5571 5571 5571 5571 5571 5570 5570 5570 5570 5570 5569 5569 5569 5568 5569 5569 5570 5570 5571 5571 5572 5573 5574 5575 5576 5576 5577 5578 5579 5580 5580 5581 5582 5583 5584 5585
5593 5592 5591 5590 5590 5589 5588 5587 5586 5585 5584 5583 5582 5581 5580 5579 5578 5577 5576 5575 5574 5573 5573 5572 5571 5571 5570 5569 5569 5568 5568 5567 5567 5566 5566 5565 5565 5565 5565 5564 5564 5564 5564 5564 5563 5563 5563 5563 5563 5563 5564 5565 5566 5566 5567 5569 5570 5570 5571 5572 5573 5574 5575 5575 5576 5577 5578 5578 5579